Weather History for Waukesha, WI

Change the Weather History Date:

Thursday, September 26, 2013

  Actual Average Record
Temperature  
Mean Temperature 56 °F -  
Max Temperature 71 °F 68 °F 89 °F (1998)
Min Temperature 42 °F 47 °F 34 °F (1984)
Degree Days  
Heating Degree Days 8    
Growing Degree Days 6 (Base 50)    
Moisture  
Dew Point 47 °F    
Average Humidity 89    
Maximum Humidity 100    
Minimum Humidity 43    
Precipitation  
Precipitation 0.00 in - - ()
Sea Level Pressure  
Sea Level Pressure 30.07 in    
Wind  
Wind Speed 1 mph (SE)    
Max Wind Speed 10 mph    
Max Gust Speed 16 mph    
Visibility 6 miles    
Events Fog    
Averages and records for this station are not official NWS values.
T = Trace of Precipitation, MM = Missing Value Source: NWS Daily Summary

Daily Weather History Graph

Daily Weather History Graph

Search for Another Location

Airport:

Trip Planner

Search our weather history database for the weather conditions in past years. The results will help you decide how hot, cold, wet, or windy it might be!

Date:

Astronomy

Sep. 26, 2013 Rise Set
Actual Time 6:44 AM CDT 6:42 PM CDT
Civil Twilight 6:16 AM CDT 7:10 PM CDT
Nautical Twilight 5:43 AM CDT 7:43 PM CDT
Astronomical Twilight 5:09 AM CDT 8:17 PM CDT
Moon 11:33 PM CDT (9/26) 1:44 PM CDT (9/26)
Length of Visible Light 12h 54m
Length of Day
11h 57m
Waning Gibbous, 54% of the Moon is Illuminated
Sep 26
Waning Gibbous
Sep 26
Last Quarter
Oct 4
New
Oct 11
First Quarter
Oct 18
Full

Hourly Weather History & Observations

Time (CDT) Temp. Dew Point Humidity Pressure Visibility Wind Dir Wind Speed Gust Speed Precip Events Conditions
12:15 AM 44.6 °F 44.6 °F 100% 30.01 in 1.0 mi Calm Calm - N/A   Mist
12:35 AM 44.6 °F 44.6 °F 100% 30.01 in 4.0 mi Calm Calm - N/A   Clear
12:55 AM 46.4 °F 46.4 °F 100% 30.01 in 1.5 mi Calm Calm - N/A   Mist
1:15 AM 46.4 °F 46.4 °F 100% 30.01 in 0.2 mi Calm Calm - N/A Fog Fog
1:35 AM 46.4 °F 46.4 °F 100% 30.01 in 3.0 mi Calm Calm - N/A   Scattered Clouds
1:55 AM 46.4 °F 46.4 °F 100% 30.02 in 3.0 mi Calm Calm - N/A   Clear
2:15 AM 44.6 °F 44.6 °F 100% 30.03 in 2.0 mi Calm Calm - N/A   Clear
2:35 AM 44.6 °F 44.6 °F 100% 30.03 in 0.5 mi Calm Calm - N/A Fog Fog
2:55 AM 42.8 °F 42.8 °F 100% 30.03 in 0.5 mi Calm Calm - N/A Fog Fog
3:15 AM 44.6 °F 44.6 °F 100% 30.04 in 0.5 mi Calm Calm - N/A Fog Fog
3:35 AM 44.6 °F 44.6 °F 100% 30.04 in 0.2 mi Calm Calm - N/A Fog Fog
3:55 AM 42.8 °F 42.8 °F 100% 30.04 in 1.0 mi Calm Calm - N/A   Mostly Cloudy
4:15 AM 44.6 °F 44.6 °F 100% 30.05 in 0.2 mi Calm Calm - N/A Fog Fog
4:35 AM 44.6 °F 44.6 °F 100% 30.06 in 0.2 mi Calm Calm - N/A Fog Fog
4:55 AM 44.6 °F 44.6 °F 100% 30.06 in 0.2 mi Calm Calm - N/A Fog Fog
5:15 AM 42.8 °F 42.8 °F 100% 30.06 in 0.2 mi Calm Calm - N/A Fog Fog
5:35 AM 44.6 °F 44.6 °F 100% 30.06 in 0.5 mi Calm Calm - N/A Fog Fog
5:50 AM 46.4 °F 46.4 °F 100% 30.06 in 10.0 mi Calm Calm - N/A Fog Patches of Fog
6:45 AM 46.4 °F 46.4 °F 100% 30.08 in 6.0 mi Calm Calm - N/A Fog Fog
7:45 AM 48.2 °F 48.2 °F 100% 30.09 in 6.0 mi Calm Calm - N/A   Clear
8:45 AM 55.4 °F 55.4 °F 100% 30.10 in 7.0 mi Calm Calm - N/A   Clear
9:45 AM 62.6 °F 59.0 °F 88% 30.10 in 10.0 mi SE 6.9 mph - N/A   Clear
10:45 AM 66.2 °F 53.6 °F 64% 30.10 in 10.0 mi SE 5.8 mph - N/A   Partly Cloudy
11:45 AM 68.0 °F 53.6 °F 60% 30.10 in 10.0 mi SE 3.5 mph - N/A   Clear
12:45 PM 69.8 °F 53.6 °F 56% 30.10 in 10.0 mi ESE 4.6 mph - N/A   Clear
1:45 PM 71.6 °F 51.8 °F 50% 30.09 in 10.0 mi SSE 10.4 mph - N/A   Clear
2:45 PM 71.6 °F 48.2 °F 43% 30.08 in 10.0 mi SE 8.1 mph 16.1 mph N/A   Clear
4:45 PM 69.8 °F 48.2 °F 46% 30.08 in 10.0 mi East 9.2 mph - N/A   Clear
5:45 PM 66.2 °F 44.6 °F 46% 30.09 in 10.0 mi ESE 9.2 mph - N/A   Clear
6:45 PM 59.0 °F 46.4 °F 63% 30.08 in 10.0 mi East 9.2 mph - N/A   Clear
8:45 PM 53.6 °F 48.2 °F 82% 30.12 in 10.0 mi Calm Calm - N/A   Clear
9:15 PM 51.8 °F 48.2 °F 88% 30.11 in 10.0 mi Calm Calm - N/A   Clear
9:35 PM 46.4 °F 46.4 °F 100% 30.11 in 7.0 mi Calm Calm - N/A   Clear
9:55 PM 48.2 °F 46.4 °F 93% 30.12 in 10.0 mi Calm Calm - N/A   Clear
10:15 PM 50.0 °F 46.4 °F 87% 30.12 in 10.0 mi Calm Calm - N/A   Clear
10:35 PM 48.2 °F 46.4 °F 93% 30.12 in 10.0 mi Calm Calm - N/A   Clear
10:55 PM 48.2 °F 46.4 °F 93% 30.12 in 10.0 mi Calm Calm - N/A   Clear
11:15 PM 46.4 °F 46.4 °F 100% 30.12 in 7.0 mi Calm Calm - N/A   Clear
11:35 PM 46.4 °F 46.4 °F 100% 30.12 in 10.0 mi Calm Calm - N/A   Clear
11:55 PM 46.4 °F 46.4 °F 100% 30.12 in 10.0 mi Calm Calm - N/A   Clear